Terug naar catalogus

SL-14 DEB

ActiefPO
NORAD 25214·DEBRIS·🇷🇺 Russia

Gelanceerd Aug 18, 1987 vanaf Plesetsk Cosmodrome

Loading…

Volgende Passages (komende 24 uur)

TLE

VersSource: Space-Track

Epoch: Sep 13, 2026, 10:00 UTC

1 25214U 87068AR  26256.41676448  .00001564  00000-0  84190-3 0  9995
2 25214  82.5436  30.0786 0004920 249.7572 165.7838 14.12282989457313

Volg SL-14 DEB in realtime met AllMySat

Download on the App Store